Location: Boiro
(42.6475°N, 8.8834°W)
Time: 15:48:57
(UTC+02:00)

Explorer 7 - Pass Details

Date: 01 July 2022
Orbit: 482 x 668 km, 50.3° (Epoch: 15 August)

Event Time Altitude Azimuth Distance (km) Brightness Sun altitude
Rises 01:18:03 0° 240° (WSW) 2,999 10.5 -21.6°
Reaches altitude 10° 01:20:25 10° 241° (WSW) 2,089 9.7 -21.8°
Maximum altitude 01:25:17 84° 330° (NNW) 671 7.2 -22.0°
Drops below altitude 10° 01:30:03 10° 59° (ENE) 2,053 9.9 -22.3°
Sets 01:32:21 0° 60° (ENE) 2,944 10.7 -22.4°
